TimeMDT,TemperatureF,Dew PointF,Humidity,Sea Level PressureIn,VisibilityMPH,Wind Direction,Wind SpeedMPH,Gust SpeedMPH,PrecipitationIn,Events,Conditions,WindDirDegrees,DateUTC
12:53 AM,54.0,44.1,69,29.91,10.0,Calm,Calm,-,N/A,,Clear,0,2013-06-23 06:53:00
1:53 AM,53.1,43.0,69,29.90,10.0,WSW,4.6,-,N/A,,Clear,250,2013-06-23 07:53:00
2:53 AM,50.0,43.0,77,29.89,10.0,West,3.5,-,N/A,,Clear,270,2013-06-23 08:53:00
3:53 AM,50.0,42.1,74,29.88,10.0,Calm,Calm,-,N/A,,Clear,0,2013-06-23 09:53:00
4:53 AM,51.1,43.0,74,29.88,10.0,Calm,Calm,-,N/A,,Clear,0,2013-06-23 10:53:00
5:53 AM,51.1,44.1,77,29.87,10.0,Calm,Calm,-,N/A,,Clear,0,2013-06-23 11:53:00
6:53 AM,53.1,43.0,69,29.86,10.0,Calm,Calm,-,N/A,,Clear,0,2013-06-23 12:53:00
7:53 AM,57.0,44.1,62,29.86,10.0,Calm,Calm,-,N/A,,Clear,0,2013-06-23 13:53:00
8:53 AM,61.0,45.0,56,29.85,10.0,Calm,Calm,-,N/A,,Mostly Cloudy,0,2013-06-23 14:53:00
9:53 AM,66.0,44.1,45,29.83,10.0,ENE,3.5,-,N/A,,Partly Cloudy,60,2013-06-23 15:53:00
10:53 AM,69.1,42.1,38,29.81,10.0,Calm,Calm,-,N/A,,Mostly Cloudy,0,2013-06-23 16:53:00
11:53 AM,72.0,39.0,30,29.79,10.0,Calm,Calm,-,N/A,,Scattered Clouds,0,2013-06-23 17:53:00
12:53 PM,78.1,41.0,27,29.75,10.0,Variable,4.6,-,N/A,,Clear,0,2013-06-23 18:53:00
1:53 PM,79.0,41.0,26,29.72,10.0,ENE,8.1,-,N/A,,Clear,60,2013-06-23 19:53:00
2:53 PM,80.1,37.9,22,29.68,10.0,East,5.8,-,N/A,,Clear,90,2013-06-23 20:53:00
3:53 PM,82.0,39.9,22,29.64,10.0,North,5.8,-,N/A,,Clear,360,2013-06-23 21:53:00
4:53 PM,82.9,41.0,23,29.61,10.0,NNW,6.9,-,N/A,,Clear,340,2013-06-23 22:53:00
5:53 PM,84.9,41.0,21,29.59,10.0,North,9.2,-,N/A,,Clear,350,2013-06-23 23:53:00
6:53 PM,82.9,42.1,24,29.57,10.0,North,5.8,-,N/A,,Mostly Cloudy,350,2013-06-24 00:53:00
7:53 PM,82.0,43.0,25,29.57,10.0,NNE,3.5,-,N/A,,Clear,20,2013-06-24 01:53:00
8:53 PM,79.0,43.0,28,29.56,10.0,North,3.5,-,N/A,,Mostly Cloudy,350,2013-06-24 02:53:00
9:53 PM,73.0,52.0,48,29.57,10.0,WSW,4.6,-,N/A,,Scattered Clouds,250,2013-06-24 03:53:00
10:53 PM,73.0,48.0,41,29.60,10.0,WSW,18.4,26.5,N/A,,Scattered Clouds,240,2013-06-24 04:53:00
11:53 PM,68.0,53.1,59,29.63,10.0,WSW,15.0,-,0.00,Rain,Light Rain,250,2013-06-24 05:53:00